Regional Weather Roundup
Issued by NWS

Home | Current Version | Previous Version | Text Only | Print | Product List | Glossary On
Versions: 1 2 3 4 5 6 7 8 9 10 11 12 13 14 15 16 17 18 19 20 21 22 23 24 25 26 27 28 29 30 31 32 33 34 35 36 37 38 39 40 41 42 43 44 45 46 47 48 49 50
000
ASUS43 KLOT 202200
RWRIL

ILLINOIS REGIONAL WEATHER ROUNDUP
NATIONAL WEATHER SERVICE CHICAGO/ROMEOVILLE IL
500 PM CDT SAT SEP 20 2014

NOTE: "FAIR" INDICATES FEW OR NO CLOUDS BELOW 12,000 FEET WITH NO
SIGNIFICANT WEATHER AND/OR OBSTRUCTIONS TO VISIBILITY.

* THESE STATIONS ARE NOT UNDER NWS QUALITY CONTROL. THEY ALSO MAY NOT
  REPORT WEATHER SUCH AS PRECIPITATION OR FOG.

ILZ001-002-007-009-015-016-024-202300-
NORTHWEST ILLINOIS

CITY           SKY/WX    TMP DP  RH WIND       PRES   REMARKS
MOLINE         PTSUNNY   78  67  68 W9        29.82S HX  80
STERLING*      MOSUNNY   79  66  65 W15       29.80S HX  81
$$

ILZ003-004-008-010-011-017-018-202300-
NORTH CENTRAL ILLINOIS

CITY           SKY/WX    TMP DP  RH WIND       PRES   REMARKS
ROCKFORD       MOSUNNY   75  62  64 SW15      29.79S
FREEPORT*      SUNNY     75  67  76 W17       29.81R
ROCHELLE*      MOSUNNY   75  65  70 SW13      29.80S
$$

ILZ005-006-012>014-019>023-202300-
NORTHEAST ILLINOIS

CITY           SKY/WX    TMP DP  RH WIND       PRES   REMARKS
CHICAGO-OHARE  PTSUNNY   77  66  68 SW7       29.78F
CHICAGO-MIDWAY PTSUNNY   77  68  73 SW12      29.78F
AURORA         PTSUNNY   76  63  64 SW9       29.80F
LANSING*       CLOUDY    68  66  93 S6        29.81F
WAUKEGAN       PTSUNNY   71  65  81 S9        29.76F
DUPAGE AIRPORT PTSUNNY   76  65  68 S9        29.78F
WHEELING       PTSUNNY   76  65  68 SW7       29.79F
NORTHERLY ISL    N/A     74  66  76 SW5         N/A
$$

LMZ740>746-202300-
SOUTHERN LAKE MICHIGAN

STATION/POSITION SKY/WX   TEMP    WIND        PRES    VSBY  WAVE
                          AIR SEA DIR/SP/G                  HT/PER
                          (F)     (DEG/KT/KT) (MB)    (MI)  (FT/S)
SOUTHERN BUOY              66     220/ 12/ 14 1009.0R
WAUKEGAN HARBOR            69     200/  8/  9   N/A
HARRISON CRIB              73     240/ 14/ 22   N/A
BURNHAM HARBOR             74     190/  5/ 10   N/A
CALUMET HARBOR             70     190/  5/  8 1008.3F
MICHIGAN CITY              69     190/  9/ 12   N/A
MICHIGAN CITY 6N           67 65  220/  8/ 10   N/A           2/ 4
ST. JOSEPH                 68 65  220/  8/ 12   N/A           2/ 4
$$

ILZ025>027-034>036-040-047-049-050-058-095>099-202300-
WEST-CENTRAL ILLINOIS

CITY           SKY/WX    TMP DP  RH WIND       PRES   REMARKS
QUINCY         PTSUNNY   82  70  66 W6        29.88F HX  86
GALESBURG*     PTSUNNY   79  69  72 SW13G20   29.83F HX  81
MACOMB*        PTSUNNY   79  67  67 SW10      29.88F HX  81
$$

ILZ028>032-037-038-041>044-048-051>054-059>061-202300-
CENTRAL ILLINOIS

CITY           SKY/WX    TMP DP  RH WIND       PRES   REMARKS
DECATUR        LGT RAIN  75  71  87 W10       29.90F
PEORIA         PTSUNNY   80  67  64 W13       29.84F HX  82
SPRINGFIELD    LGT RAIN  75  71  87 W6        29.88F FOG
TAYLORVILLE    NOT AVBL
$$

ILZ033-039-045-046-055>057-062-063-202300-
EAST-CENTRAL ILLINOIS

CITY           SKY/WX    TMP DP  RH WIND       PRES   REMARKS
CHAMPAIGN      TSTM      73  69  87 SW13G20   29.91R
MATTOON        PTSUNNY   81  67  62 SW14G24   29.90F HX  83
$$

ILZ079-100>102-202300-
SOUTHWEST ILLINOIS

CITY           SKY/WX    TMP DP  RH WIND       PRES   REMARKS
BELLEVILLE     PTSUNNY   86  69  57 CALM      29.91F HX  90
CAHOKIA*       PTSUNNY   88  66  48 SW8       29.91F HX  90
SPARTA*        PTSUNNY   85  69  57 S8        29.94F HX  89
$$

ILZ064>066-069>071-074>076-080>082-084>086-088>090-092>094-202300-
SOUTH-CENTRAL ILLINOIS

CITY           SKY/WX    TMP DP  RH WIND       PRES   REMARKS
CARBONDALE     MOSUNNY   84  67  56 SW13      29.94F HX  86
MARION         PTSUNNY   86  68  54 SW15      29.95F HX  89
MT. VERNON     PTSUNNY   82  70  65 S10       29.94F HX  86
$$

ILZ067-068-072-073-078-083-087-091-202300-
SOUTHEAST ILLINOIS

CITY           SKY/WX    TMP DP  RH WIND       PRES   REMARKS
LAWRENCEVILLE  PTSUNNY   83  67  58 SW12      29.91F HX  85
ROBINSON*      PTSUNNY   84  68  57 SW13G22   29.91F HX  87
$$

ABBREVIATIONS USED IN REMARKS
   TC - TEMPERATURE IN CELSIUS
  WCI - WIND CHILL INDEX
   HX - HEAT INDEX
  VSB - VISIBILITY
$$



USA.gov is the U.S. government's official web portal to all federal, state and local government web resources and services.